| time (UTC) | temp F | wind direction | speed knots | gust knots | rain 1hr in | rain 24hr in | rain mn in | humidity % | barometer mb |
| 20260504231810 | 56 | 243 | 0.0 | 0.0 | 0.00 | 0.01 | 0.01 | 73 | 1008.5 |
| 20260504231306 | 57 | 190 | 0.0 | 0.0 | 0.00 | 0.01 | 0.01 | 72 | 1008.4 |
| 20260504230802 | 58 | 333 | 0.0 | 0.0 | 0.00 | 0.01 | 0.01 | 71 | 1008.5 |
| 20260504230300 | 58 | 264 | 0.0 | 0.0 | 0.00 | 0.01 | 0.01 | 70 | 1008.3 |
| 20260504225759 | 59 | 227 | 0.0 | 0.0 | 0.00 | 0.01 | 0.01 | 68 | 1008.0 |
| 20260504225254 | 60 | 125 | 0.0 | 0.0 | 0.00 | 0.01 | 0.01 | 69 | 1008.1 |
| 20260504224752 | 60 | 211 | 0.0 | 0.0 | 0.00 | 0.01 | 0.01 | 67 | 1008.0 |
| 20260504224249 | 60 | 213 | 0.9 | 0.9 | 0.00 | 0.01 | 0.01 | 67 | 1008.1 |
| 20260504223745 | 60 | 254 | 0.0 | 0.0 | 0.00 | 0.01 | 0.01 | 68 | 1008.0 |
| 20260504223241 | 60 | 157 | 1.7 | 1.7 | 0.00 | 0.01 | 0.01 | 67 | 1007.9 |
| 20260504222738 | 61 | 190 | 2.6 | 4.3 | 0.00 | 0.01 | 0.01 | 66 | 1007.9 |
| 20260504222235 | 61 | 221 | 0.9 | 0.9 | 0.00 | 0.01 | 0.01 | 66 | 1008.0 |
| 20260504221733 | 61 | 185 | 4.3 | 6.1 | 0.00 | 0.01 | 0.01 | 66 | 1007.9 |
| 20260504221229 | 61 | 286 | 0.0 | 0.0 | 0.00 | 0.01 | 0.01 | 68 | 1008.0 |
| 20260504220726 | 63 | 216 | 2.6 | 2.6 | 0.00 | 0.01 | 0.01 | 64 | 1007.6 |
| 20260504220223 | 63 | 200 | 1.7 | 2.6 | 0.00 | 0.01 | 0.01 | 63 | 1007.6 |
| 20260504215720 | 63 | 3 | 0.9 | 0.9 | 0.00 | 0.01 | 0.01 | 62 | 1007.6 |
| 20260504215217 | 63 | 227 | 1.7 | 1.7 | 0.00 | 0.01 | 0.01 | 62 | 1007.8 |
| 20260504214713 | 63 | 245 | 1.7 | 1.7 | 0.00 | 0.01 | 0.01 | 63 | 1007.6 |
| 20260504214210 | 63 | 281 | 0.0 | 0.0 | 0.00 | 0.01 | 0.01 | 63 | 1007.6 |
| 20260504213706 | 63 | 308 | 4.3 | 5.2 | 0.00 | 0.01 | 0.01 | 62 | 1007.6 |
| 20260504213203 | 63 | 187 | 2.6 | 4.3 | 0.00 | 0.01 | 0.01 | 62 | 1007.7 |
| 20260504212700 | 62 | 309 | 1.7 | 2.6 | 0.00 | 0.01 | 0.01 | 62 | 1007.6 |
| 20260504212156 | 63 | 291 | 0.0 | 0.9 | 0.00 | 0.01 | 0.01 | 64 | 1007.7 |
| 20260504211654 | 63 | 305 | 0.9 | 0.9 | 0.00 | 0.01 | 0.01 | 63 | 1007.7 |
| 20260504211150 | 62 | 273 | 6.1 | 8.7 | 0.00 | 0.01 | 0.01 | 63 | 1007.5 |
| 20260504210648 | 62 | 314 | 2.6 | 4.3 | 0.00 | 0.01 | 0.01 | 63 | 1007.5 |
| 20260504210144 | 62 | 247 | 5.2 | 7.0 | 0.00 | 0.01 | 0.01 | 63 | 1007.5 |
| 20260504205641 | 62 | 245 | 0.0 | 0.9 | 0.00 | 0.01 | 0.01 | 65 | 1007.5 |
| 20260504205138 | 62 | 268 | 1.7 | 1.7 | 0.00 | 0.01 | 0.01 | 65 | 1007.4 |
| 20260504204637 | 61 | 251 | 0.9 | 0.9 | 0.00 | 0.01 | 0.01 | 67 | 1007.5 |
| 20260504204136 | 60 | 308 | 4.3 | 5.2 | 0.00 | 0.01 | 0.01 | 67 | 1007.9 |
| 20260504203634 | 62 | 312 | 7.8 | 9.6 | 0.00 | 0.01 | 0.01 | 64 | 1007.6 |
| 20260504203131 | 62 | 282 | 0.0 | 0.9 | 0.00 | 0.01 | 0.01 | 68 | 1007.5 |
| 20260504202631 | 61 | 310 | 2.6 | 4.3 | 0.00 | 0.01 | 0.01 | 65 | 1007.5 |
| 20260504202129 | 62 | 232 | 3.5 | 4.3 | 0.00 | 0.01 | 0.01 | 65 | 1007.5 |
| 20260504201625 | 61 | 207 | 0.0 | 0.0 | 0.00 | 0.01 | 0.01 | 67 | 1007.4 |
| 20260504201123 | 61 | 322 | 2.6 | 4.3 | 0.00 | 0.01 | 0.01 | 67 | 1007.7 |
| 20260504200620 | 62 | 275 | 0.0 | 0.0 | 0.00 | 0.01 | 0.01 | 66 | 1007.3 |
| 20260504200116 | 62 | 293 | 1.7 | 1.7 | 0.00 | 0.01 | 0.01 | 68 | 1007.3 |
| 20260504195613 | 61 | 206 | 2.6 | 2.6 | 0.00 | 0.01 | 0.01 | 68 | 1007.4 |
| 20260504195109 | 60 | 323 | 2.6 | 4.3 | 0.00 | 0.01 | 0.01 | 68 | 1007.5 |
| 20260504194606 | 59 | 280 | 1.7 | 1.7 | 0.00 | 0.01 | 0.01 | 72 | 1007.5 |
| 20260504194101 | 59 | 256 | 3.5 | 6.1 | 0.00 | 0.01 | 0.01 | 72 | 1007.5 |
| 20260504193558 | 59 | 180 | 1.7 | 1.7 | 0.00 | 0.01 | 0.01 | 74 | 1007.6 |
| 20260504193057 | 57 | 278 | 0.9 | 1.7 | 0.00 | 0.01 | 0.01 | 74 | 1007.9 |
| 20260504192555 | 58 | 237 | 3.5 | 5.2 | 0.00 | 0.01 | 0.01 | 74 | 1007.8 |
| 20260504192052 | 55 | 296 | 1.7 | 1.7 | 0.00 | 0.01 | 0.01 | 79 | 1007.9 |
| 20260504191550 | 55 | 274 | 3.5 | 4.3 | 0.00 | 0.01 | 0.01 | 79 | 1007.8 |
| 20260504191046 | 55 | 257 | 1.7 | 1.7 | 0.00 | 0.01 | 0.01 | 81 | 1008.0 |
| 20260504190542 | 54 | 154 | 2.6 | 2.6 | 0.00 | 0.01 | 0.01 | 82 | 1008.1 |
| 20260504190039 | 54 | 190 | 4.3 | 5.2 | 0.00 | 0.01 | 0.01 | 82 | 1007.9 |
| 20260504185536 | 53 | 201 | 2.6 | 2.6 | 0.00 | 0.01 | 0.01 | 85 | 1007.8 |
| 20260504185032 | 53 | 129 | 0.9 | 1.7 | 0.00 | 0.01 | 0.01 | 83 | 1008.3 |
| 20260504184528 | 53 | 259 | 0.0 | 0.0 | 0.00 | 0.01 | 0.01 | 85 | 1008.5 |
| 20260504184023 | 53 | 189 | 1.7 | 2.6 | 0.00 | 0.01 | 0.01 | 84 | 1008.6 |
| 20260504183521 | 53 | 303 | 0.9 | 0.9 | 0.00 | 0.01 | 0.01 | 82 | 1008.5 |
| 20260504183019 | 53 | 281 | 2.6 | 2.6 | 0.07 | 0.01 | 0.01 | 82 | 1008.5 |
| 20260504182515 | 53 | 317 | 0.0 | 0.0 | 0.07 | 0.01 | 0.01 | 81 | 1008.5 |
| 20260504182013 | 54 | 252 | 2.6 | 2.6 | 0.00 | 0.00 | 0.00 | 79 | 1008.6 |
| 20260504181509 | 54 | 206 | 0.9 | 1.7 | 0.00 | 0.00 | 0.00 | 76 | 1008.4 |
| 20260504181008 | 54 | 246 | 0.0 | 0.9 | 0.00 | 0.00 | 0.00 | 77 | 1008.5 |
| 20260504180507 | 54 | 183 | 2.6 | 2.6 | 0.00 | 0.00 | 0.00 | 74 | 1008.4 |
| 20260504180005 | 54 | 297 | 2.6 | 2.6 | 0.00 | 0.00 | 0.00 | 75 | 1008.3 |
| 20260504175502 | 53 | 252 | 0.9 | 1.7 | 0.00 | 0.00 | 0.00 | 78 | 1008.4 |
| 20260504174959 | 53 | 264 | 0.9 | 0.9 | 0.00 | 0.00 | 0.00 | 76 | 1008.3 |
| 20260504174456 | 53 | 224 | 2.6 | 6.1 | 0.00 | 0.00 | 0.00 | 76 | 1008.1 |
| 20260504173953 | 53 | 220 | 3.5 | 5.2 | 0.00 | 0.00 | 0.00 | 77 | 1008.3 |
| 20260504173450 | 53 | 318 | 3.5 | 5.2 | 0.00 | 0.00 | 0.00 | 74 | 1008.2 |
| 20260504172947 | 53 | 196 | 2.6 | 2.6 | 0.00 | 0.00 | 0.00 | 73 | 1008.3 |
| 20260504172443 | 54 | 300 | 3.5 | 4.3 | 0.00 | 0.00 | 0.00 | 71 | 1008.0 |
| 20260504171940 | 54 | 163 | 1.7 | 1.7 | 0.00 | 0.00 | 0.00 | 74 | 1007.6 |
| 20260504171437 | 55 | 199 | 3.5 | 4.3 | 0.00 | 0.00 | 0.00 | 69 | 1007.5 |
| 20260504170934 | 55 | 248 | 5.2 | 7.0 | 0.00 | 0.00 | 0.00 | 67 | 1007.6 |
| 20260504170430 | 55 | 280 | 1.7 | 2.6 | 0.00 | 0.00 | 0.00 | 67 | 1007.5 |
| 20260504160349 | 57 | 119 | 2.6 | 2.6 | 0.00 | 0.00 | 0.00 | 57 | 1007.9 |
| 20260504150814 | 57 | 219 | 5.2 | 7.0 | 0.00 | 0.00 | 0.00 | 54 | 1008.6 |
| 20260504150310 | 57 | 202 | 4.3 | 4.3 | 0.00 | 0.00 | 0.00 | 55 | 1008.6 |
| 20260504141241 | 57 | 128 | 0.9 | 0.9 | 0.00 | 0.00 | 0.00 | 52 | 1009.0 |
| 20260504140737 | 57 | 163 | 1.7 | 1.7 | 0.00 | 0.00 | 0.00 | 53 | 1008.9 |
| 20260504140233 | 56 | 294 | 0.9 | 0.9 | 0.00 | 0.00 | 0.00 | 54 | 1009.1 |
| 20260504130702 | 53 | 308 | 3.5 | 4.3 | 0.00 | 0.00 | 0.00 | 54 | 1009.8 |
| 20260504130157 | 54 | 300 | 1.7 | 1.7 | 0.00 | 0.00 | 0.00 | 55 | 1009.8 |
| 20260504120122 | 49 | 321 | 2.6 | 2.6 | 0.00 | 0.00 | 0.00 | 64 | 1010.1 |
| 20260504110549 | 43 | 249 | 0.9 | 0.9 | 0.00 | 0.00 | 0.00 | 76 | 1009.9 |
| 20260504100511 | 36 | 281 | 0.0 | 0.9 | 0.00 | 0.00 | 0.00 | 90 | 1009.7 |
| 20260504081904 | 36 | 359 | 0.0 | 0.0 | 0.00 | 0.00 | 0.00 | 88 | 1008.7 |
| 20260504081401 | 36 | 352 | 0.0 | 0.0 | 0.00 | 0.00 | 0.00 | 89 | 1008.8 |
| 20260504080856 | 36 | 0 | 0.0 | 0.0 | 0.00 | 0.00 | 0.00 | 89 | 1008.9 |
| 20260504080354 | 36 | 352 | 0.0 | 0.0 | 0.00 | 0.00 | 0.00 | 88 | 1008.7 |
| 20260504070321 | 37 | 300 | 4.3 | 6.1 | 0.00 | 0.00 | 0.00 | 86 | 1008.7 |
| 20260504060241 | 34 | 352 | 0.0 | 0.0 | 0.00 | 0.00 | 0.00 | 95 | 1007.8 |
| 20260504050709 | 38 | 353 | 0.0 | 0.0 | 0.00 | 0.00 | 0.00 | 82 | 1007.6 |
| 20260504050206 | 39 | 5 | 0.0 | 0.9 | 0.00 | 0.00 | 0.00 | 82 | 1007.3 |
| 20260504045704 | 39 | 298 | 1.7 | 1.7 | 0.00 | 0.00 | 0.00 | 82 | 1007.6 |
| 20260504045203 | 39 | 353 | 0.0 | 0.0 | 0.00 | 0.00 | 0.00 | 82 | 1007.4 |
| 20260504044702 | 39 | 349 | 0.0 | 0.0 | 0.00 | 0.00 | 0.00 | 81 | 1007.5 |
| 20260504044159 | 40 | 344 | 0.9 | 1.7 | 0.00 | 0.00 | 0.00 | 80 | 1007.4 |
| 20260504043655 | 40 | 331 | 1.7 | 2.6 | 0.00 | 0.00 | 0.00 | 79 | 1007.2 |
| 20260504043152 | 40 | 328 | 0.9 | 1.7 | 0.00 | 0.00 | 0.00 | 80 | 1007.4 |
| 20260504042650 | 40 | 328 | 0.0 | 0.0 | 0.00 | 0.00 | 0.00 | 80 | 1007.1 |
| 20260504042146 | 40 | 321 | 0.0 | 0.9 | 0.00 | 0.00 | 0.00 | 78 | 1007.2 |
| 20260504041642 | 41 | 331 | 0.0 | 0.0 | 0.00 | 0.00 | 0.00 | 78 | 1007.2 |
| 20260504041138 | 41 | 304 | 1.7 | 1.7 | 0.00 | 0.00 | 0.00 | 77 | 1007.2 |
| 20260504040636 | 41 | 345 | 1.7 | 2.6 | 0.00 | 0.00 | 0.00 | 77 | 1007.0 |
| 20260504040133 | 41 | 316 | 2.6 | 4.3 | 0.00 | 0.00 | 0.00 | 77 | 1007.0 |
| 20260504035629 | 41 | 329 | 2.6 | 5.2 | 0.00 | 1.17 | 1.17 | 76 | 1007.1 |
| 20260504035126 | 41 | 273 | 0.9 | 1.7 | 0.00 | 1.17 | 1.17 | 76 | 1006.8 |
| 20260504034624 | 41 | 299 | 2.6 | 2.6 | 0.00 | 1.17 | 1.17 | 77 | 1007.2 |
| 20260504034120 | 41 | 339 | 2.6 | 2.6 | 0.00 | 1.17 | 1.17 | 77 | 1007.0 |
| 20260504033618 | 41 | 302 | 0.0 | 0.9 | 0.00 | 1.17 | 1.17 | 78 | 1007.0 |
| 20260504033115 | 41 | 41 | 0.0 | 0.9 | 0.00 | 1.17 | 1.17 | 78 | 1007.0 |
| 20260504032612 | 41 | 348 | 1.7 | 2.6 | 0.00 | 1.17 | 1.17 | 80 | 1007.0 |
| 20260504032109 | 41 | 283 | 3.5 | 6.1 | 0.00 | 1.17 | 1.17 | 78 | 1006.7 |
| 20260504031606 | 41 | 333 | 0.0 | 0.0 | 0.00 | 1.17 | 1.17 | 77 | 1006.7 |
| 20260504031102 | 41 | 337 | 1.7 | 2.6 | 0.00 | 1.17 | 1.17 | 79 | 1006.6 |
| 20260504030559 | 40 | 323 | 4.3 | 4.3 | 0.00 | 1.17 | 1.17 | 82 | 1006.6 |
| 20260504030056 | 41 | 338 | 0.0 | 0.9 | 0.00 | 1.17 | 1.17 | 80 | 1006.6 |
| 20260504025553 | 41 | 325 | 0.9 | 0.9 | 0.00 | 1.17 | 1.17 | 82 | 1006.4 |
| 20260504025050 | 40 | 346 | 3.5 | 6.1 | 0.00 | 1.17 | 1.17 | 83 | 1006.5 |
| 20260504024547 | 40 | 327 | 0.0 | 0.0 | 0.00 | 1.17 | 1.17 | 84 | 1006.2 |
| 20260504024044 | 41 | 351 | 0.0 | 0.9 | 0.00 | 1.17 | 1.17 | 82 | 1006.5 |
| 20260504023540 | 41 | 319 | 0.0 | 0.0 | 0.00 | 1.17 | 1.17 | 81 | 1006.5 |
| 20260504023036 | 42 | 322 | 0.0 | 0.9 | 0.00 | 1.17 | 1.17 | 80 | 1006.5 |
| 20260504022532 | 42 | 6 | 0.9 | 1.7 | 0.00 | 1.17 | 1.17 | 80 | 1006.4 |
| 20260504022029 | 41 | 324 | 1.7 | 1.7 | 0.00 | 1.17 | 1.17 | 82 | 1006.5 |
| 20260504021526 | 42 | 289 | 1.7 | 2.6 | 0.00 | 1.17 | 1.17 | 81 | 1006.2 |
| 20260504021023 | 42 | 320 | 0.9 | 0.9 | 0.00 | 1.17 | 1.17 | 82 | 1006.1 |
| 20260504020520 | 42 | 328 | 1.7 | 2.6 | 0.00 | 1.17 | 1.17 | 82 | 1006.2 |
| 20260504020017 | 42 | 302 | 2.6 | 4.3 | 0.00 | 1.17 | 1.17 | 83 | 1006.2 |
| 20260504015513 | 42 | 303 | 2.6 | 2.6 | 0.00 | 1.17 | 1.17 | 86 | 1006.2 |
| 20260504015009 | 42 | 317 | 1.7 | 1.7 | 0.00 | 1.17 | 1.17 | 88 | 1006.0 |
| 20260504014505 | 41 | 334 | 0.9 | 1.7 | 0.00 | 1.17 | 1.17 | 96 | 1006.0 |
| 20260504014003 | 41 | 345 | 3.5 | 4.3 | 0.00 | 1.17 | 1.17 | 99 | 1006.1 |
| 20260504013501 | 41 | 340 | 0.0 | 0.0 | 0.00 | 1.17 | 1.17 | 99 | 1005.9 |
| 20260504012956 | 41 | 336 | 0.0 | 0.0 | 0.00 | 1.17 | 1.17 | 99 | 1005.7 |
| 20260504012454 | 41 | 5 | 0.0 | 0.9 | 0.00 | 1.17 | 1.17 | 99 | 1005.9 |
| 20260504011952 | 41 | 355 | 0.0 | 0.0 | 0.00 | 1.17 | 1.17 | 99 | 1005.7 |
| 20260504011447 | 41 | 356 | 0.0 | 0.0 | 0.00 | 1.17 | 1.17 | 99 | 1005.7 |
| 20260504010944 | 41 | 356 | 0.0 | 0.0 | 0.00 | 1.17 | 1.17 | 99 | 1005.7 |
| 20260504010440 | 42 | 356 | 0.0 | 0.0 | 0.00 | 1.17 | 1.17 | 99 | 1005.9 |
| 20260504005936 | 42 | 356 | 0.0 | 0.0 | 0.00 | 1.17 | 1.17 | 99 | 1005.7 |
| 20260504005433 | 42 | 344 | 0.0 | 0.0 | 0.00 | 1.17 | 1.17 | 99 | 1005.5 |
| 20260504004931 | 42 | 333 | 0.0 | 0.0 | 0.00 | 1.17 | 1.17 | 99 | 1005.2 |
| 20260504004428 | 42 | 335 | 0.0 | 0.0 | 0.00 | 1.17 | 1.17 | 99 | 1005.3 |
| 20260504003925 | 43 | 343 | 0.0 | 0.0 | 0.00 | 1.17 | 1.17 | 99 | 1005.1 |
| 20260504003421 | 43 | 324 | 0.0 | 0.0 | 0.00 | 1.17 | 1.17 | 99 | 1005.1 |
| 20260504002918 | 43 | 340 | 0.0 | 0.0 | 0.00 | 1.17 | 1.17 | 99 | 1005.1 |
| 20260504002415 | 43 | 339 | 0.0 | 0.0 | 0.00 | 1.17 | 1.17 | 99 | 1004.9 |
| 20260504001913 | 43 | 0 | 0.0 | 0.0 | 0.00 | 1.17 | 1.17 | 99 | 1004.9 |
| 20260504001410 | 43 | 352 | 0.0 | 0.9 | 0.00 | 1.17 | 1.17 | 99 | 1005.1 |
| 20260504000906 | 43 | 344 | 0.0 | 0.0 | 0.00 | 1.17 | 1.17 | 99 | 1004.9 |
| 20260504000404 | 43 | 329 | 0.0 | 0.0 | 0.00 | 1.17 | 1.17 | 99 | 1004.7 |
| 20260503235901 | 43 | 2 | 0.0 | 0.0 | 0.00 | 1.17 | 1.17 | 99 | 1004.6 |
| 20260503235359 | 43 | 300 | 0.0 | 0.0 | 0.00 | 1.17 | 1.17 | 99 | 1004.6 |
| 20260503234856 | 43 | 348 | 0.0 | 0.0 | 0.00 | 1.17 | 1.17 | 99 | 1004.5 |
| 20260503234354 | 43 | 359 | 1.7 | 2.6 | 0.00 | 1.17 | 1.17 | 99 | 1004.3 |
| 20260503233851 | 44 | 358 | 0.0 | 0.0 | 0.00 | 1.17 | 1.17 | 99 | 1004.2 |
| 20260503233347 | 44 | 349 | 0.9 | 0.9 | 0.00 | 1.17 | 1.17 | 99 | 1004.3 |
| 20260503232844 | 44 | 47 | 2.6 | 5.2 | 0.00 | 1.17 | 1.17 | 99 | 1004.0 |
| 20260503232341 | 44 | 345 | 0.9 | 0.9 | 0.00 | 1.17 | 1.17 | 99 | 1004.2 |